Montreal Mirabel, Quebec

10:59 AM EST on December 14, 2017 (GMT -0500)
Montreal Mirabel

Weather History for CYMX - February, 2013

Change the Weather History Date:

Monday, February 25, 2013

  Actual Average Record
Temperature  
Mean Temperature 30 °F -  
Max Temperature 33 °F 25 °F 41 °F (2017)
Min Temperature 28 °F 9 °F -7 °F (1997)
Degree Days  
Heating Degree Days 34    
Moisture  
Dew Point 29 °F    
Average Humidity 95    
Maximum Humidity 100    
Minimum Humidity 87    
Precipitation  
Precipitation 0.00 in - - ()
Sea Level Pressure  
Sea Level Pressure 30.15 in    
Wind  
Wind Speed 1 mph ()    
Max Wind Speed 5 mph    
Max Gust Speed -    
Visibility 3.7 miles    
Events Snow    
Averages and records for this station are not official NWS values.
T = Trace of Precipitation, MM = Missing Value Source: Averaged Metar Reports

Daily Weather History Graph

Daily Weather History Graph

Search for Another Location

Airport or City:

Trip Planner

Search our weather history database for the weather conditions in past years. The results will help you decide how hot, cold, wet, or windy it might be!

Date:

Astronomy

Feb. 25, 2013 Rise Set
Actual Time 6:41 AM EST 5:37 PM EST
Civil Twilight 6:11 AM EST 6:07 PM EST
Nautical Twilight 5:36 AM EST 6:42 PM EST
Astronomical Twilight 5:02 AM EST 7:16 PM EST
Moon 5:51 PM EST (2/25) 6:08 AM EST (2/25)
Length of Visible Light 11h 56m
Length of Day
10h 56m
Full, 100% of the Moon is Illuminated
Feb 25
Full
Feb 25
Full
Mar 4
Last Quarter
Mar 11
New
Mar 19
First Quarter

Hourly Weather History & Observations

Time (EST) Temp. Windchill Dew Point Humidity Pressure Visibility Wind Dir Wind Speed Gust Speed Precip Events Conditions
12:00 AM 30.2 °F 26.7 °F 28.4 °F 93% 29.99 in 4.0 mi West 3.5 mph - N/A Snow Light Snow
12:31 AM 30.2 °F - 28.4 °F 93% 30.00 in 2.5 mi NNE 2.3 mph - N/A Snow Light Snow
1:00 AM 30.2 °F - 30.2 °F 100% 30.01 in 2.0 mi Calm Calm - N/A Snow Light Snow
2:00 AM 30.2 °F - 28.4 °F 93% 30.02 in 2.0 mi ENE 2.3 mph - N/A Snow Light Snow
3:00 AM 30.2 °F - 28.4 °F 93% 30.04 in 3.0 mi Calm Calm - N/A Snow Light Snow
4:00 AM 30.2 °F - 28.4 °F 93% 30.05 in 4.0 mi East 2.3 mph - N/A Snow Light Snow
5:00 AM 30.2 °F - 28.4 °F 93% 30.07 in 3.0 mi Calm Calm - N/A Snow Light Snow
6:00 AM 28.4 °F - 28.4 °F 100% 30.09 in 5.0 mi Calm Calm - N/A Snow Light Snow
7:00 AM 28.4 °F - 28.4 °F 100% 30.11 in 4.0 mi Calm Calm - N/A Snow Light Snow
8:00 AM 30.2 °F - 28.4 °F 93% 30.12 in 5.0 mi Calm Calm - N/A Snow Light Snow
9:00 AM 30.2 °F 25.4 °F 28.4 °F 93% 30.13 in 5.0 mi East 4.6 mph - N/A Snow Light Snow
10:00 AM 30.2 °F 26.7 °F 28.4 °F 93% 30.15 in 4.0 mi ENE 3.5 mph - N/A Snow Light Snow
11:00 AM 32.0 °F 27.5 °F 28.4 °F 87% 30.17 in 2.5 mi ENE 4.6 mph - N/A Snow Light Snow
12:00 PM 32.0 °F 27.5 °F 28.4 °F 87% 30.17 in 2.5 mi North 4.6 mph - N/A Snow Light Snow
1:00 PM 33.8 °F - 30.2 °F 87% 30.17 in 2.5 mi NNE 2.3 mph - N/A Snow Light Snow
1:41 PM 32.0 °F - 30.2 °F 93% 30.17 in 3.0 mi Calm Calm - N/A Snow Light Snow
2:00 PM 32.0 °F - 30.2 °F 93% 30.17 in 3.0 mi Calm Calm - N/A Snow Light Snow
3:00 PM 33.8 °F - 30.2 °F 87% 30.19 in 8.0 mi Calm Calm - N/A Snow Light Snow
4:00 PM 33.8 °F - 30.2 °F 87% 30.20 in 3.0 mi Calm Calm - N/A Snow Light Snow
5:00 PM 32.0 °F - 30.2 °F 93% 30.21 in 3.0 mi Calm Calm - N/A Snow Light Snow
6:00 PM 32.0 °F - 30.2 °F 93% 30.22 in 5.0 mi Calm Calm - N/A Snow Light Snow
7:00 PM 30.2 °F - 30.2 °F 100% 30.24 in 5.0 mi SSW 2.3 mph - N/A Snow Light Snow
7:39 PM 30.2 °F - 30.2 °F 100% 30.25 in 5.0 mi Calm Calm - N/A   Overcast
8:00 PM 30.2 °F - 30.2 °F 100% 30.25 in 5.0 mi Calm Calm - N/A   Overcast
9:00 PM 30.2 °F - 30.2 °F 100% 30.25 in 5.0 mi Calm Calm - N/A   Overcast
9:51 PM 30.2 °F - 30.2 °F 100% 30.25 in 3.0 mi Calm Calm - N/A   Overcast
10:00 PM 30.2 °F - 30.2 °F 100% 30.25 in 3.0 mi Calm Calm - N/A   Overcast
10:37 PM 30.2 °F - 30.2 °F 100% 30.25 in 2.0 mi Calm Calm - N/A   Overcast
11:00 PM 30.2 °F - 30.2 °F 100% 30.25 in 2.0 mi Calm Calm - N/A   Overcast